Theta_e
343 345 346 346 345 346 346 344 343 343 343 342 342 343 343 343 340 342 344 343 341 337 336 336 342 343 345 342 340 341 340 338 336 331 325 325 328 327 326 332 334 331 331
343 344 346 344 346 347 348 347 347 347 346 346 344 343 343 343 343 344 345 345 344 342 341 335 336 341 342 343 342 340 341 341 340 339 334 329 324 325 329 331 333 336 333
347 347 346 346 347 347 347 347 345 344 340 334 336 340 345 344 343 343 343 343 343 343 341 339 340 336 339 342 342 341 340 340 341 341 339 336 333 328 323 326 327 328 337
346 345 345 343 343 344 345 344 340 336 337 336 332 335 338 338 341 339 340 342 342 340 342 342 339 341 339 337 340 341 341 341 341 342 342 339 338 336 333 326 323 325 325
345 344 343 339 332 331 334 338 338 338 340 338 335 332 326 325 328 333 335 339 340 340 340 341 340 343 343 344 340 338 339 340 340 339 341 343 340 339 339 336 331 325 324
345 342 337 333 334 335 339 341 341 341 335 340 333 326 321 319 322 325 332 333 336 338 334 337 342 341 341 340 341 343 342 340 338 338 338 342 343 341 340 340 338 334 330
344 340 336 337 340 339 342 340 338 338 337 328 333 332 332 333 332 337 336 335 331 331 331 336 339 343 341 340 344 343 342 343 342 341 339 340 342 343 343 341 340 339 336
343 344 341 340 342 342 344 339 334 325 332 326 333 333 332 332 338 333 334 333 336 333 330 331 333 333 334 334 336 337 342 343 342 343 342 340 341 341 343 343 342 340 340
344 345 343 343 344 345 346 338 322 320 327 323 322 329 332 333 334 334 335 336 336 334 330 329 328 327 329 333 334 336 338 339 341 343 344 342 341 342 341 342 343 343 342
345 345 343 341 342 343 344 330 320 320 321 325 331 334 332 333 334 333 333 334 334 333 330 326 324 325 326 326 327 330 334 336 338 342 345 344 343 342 342 341 342 342 343
347 345 343 346 343 343 339 324 319 319 321 327 334 335 335 335 334 333 332 330 330 329 327 325 323 317 316 317 322 325 326 330 333 339 342 345 345 345 343 342 342 342 343
344 344 343 344 341 343 337 322 319 320 325 329 330 333 334 332 331 332 330 328 326 324 322 322 323 323 323 323 320 317 320 322 326 332 338 338 341 342 344 345 345 344 343
345 345 341 343 342 342 334 321 319 323 328 330 329 328 329 329 329 327 326 324 322 322 323 324 325 325 325 326 326 325 320 319 320 323 332 336 338 339 341 341 345 344 344
346 343 336 335 343 341 328 320 321 326 328 325 322 321 323 324 324 323 323 323 324 324 324 324 325 325 325 326 326 325 325 321 320 319 321 329 334 338 341 341 341 342 345
342 344 342 339 341 337 322 321 325 327 322 320 319 317 315 314 317 319 321 323 324 324 324 322 323 324 325 325 325 325 326 325 322 321 319 320 329 334 338 340 343 345 345
334 339 343 344 341 329 322 323 328 321 319 319 318 316 314 315 319 322 322 323 324 324 324 324 323 322 323 324 324 324 325 324 325 326 321 320 321 328 334 336 338 342 342
334 335 337 342 336 325 322 328 323 319 319 318 317 317 315 315 319 322 322 324 324 324 322 323 323 323 323 322 323 324 324 324 326 325 324 322 321 321 325 332 336 337 340
337 336 335 341 335 324 326 327 320 320 319 318 317 317 316 313 316 322 324 323 321 322 323 323 323 323 323 323 324 324 325 323 326 327 327 326 324 323 322 325 333 335 336
339 336 334 341 329 326 328 323 320 321 320 319 317 317 316 313 323 323 323 320 323 322 323 322 322 322 323 323 324 324 326 325 325 326 326 325 327 329 322 323 327 333 336
343 341 341 331 326 327 328 321 321 321 321 321 318 317 315 313 323 323 320 322 323 322 320 319 319 321 324 327 324 324 325 326 326 326 325 324 325 327 327 322 323 329 335
343 340 329 325 326 329 325 321 322 322 322 322 319 318 312 320 323 320 322 323 322 321 320 319 321 324 327 326 324 324 325 326 325 325 325 323 325 327 326 322 321 326 334
340 333 326 325 328 329 322 322 323 323 323 322 318 316 310 320 321 320 322 321 321 321 319 319 320 324 326 327 326 325 325 325 325 326 325 325 326 328 332 331 323 325 332
336 329 325 326 330 324 322 323 324 324 324 322 317 311 312 321 320 322 322 322 322 322 321 320 321 324 325 325 326 325 325 325 326 327 328 328 330 330 333 333 331 328 331
331 327 325 328 324 321 322 324 324 324 324 319 313 309 314 320 320 321 322 322 322 323 321 324 322 326 330 329 327 327 326 326 326 328 330 333 335 338 333 336 333 331 334
329 325 325 324 321 321 324 325 325 324 321 317 310 308 318 320 319 320 321 322 322 322 325 324 325 331 332 330 328 326 326 325 327 330 331 332 333 336 337 340 338 332 334
327 326 325 321 321 323 326 326 326 324 318 315 309 307 316 319 318 319 321 322 321 321 322 322 321 326 328 328 326 327 326 327 328 331 334 334 336 337 340 344 342 336 338
Wind_Speed
4 6 6 6 7 8 8 9 10 11 12 13 13 15 16 16 16 18 17 16 16 17 19 19 17 16 16 15 15 13 13 13 13 13 13 14 14 15 15 14 12 11 11
7 9 8 7 6 8 9 11 13 13 13 15 17 18 17 16 18 19 19 18 16 16 16 17 20 20 18 17 16 16 15 16 15 14 15 14 14 15 16 16 15 13 13
7 7 9 9 9 10 12 14 15 16 16 18 19 18 18 19 19 20 20 19 19 19 19 15 20 22 24 22 20 18 18 17 17 17 16 17 16 15 16 17 16 16 16
6 8 9 10 10 11 12 13 15 16 17 20 21 18 17 18 19 20 20 23 20 22 23 25 24 21 21 25 26 25 23 22 20 19 19 19 19 18 16 17 17 17 17
8 10 12 11 10 10 12 14 16 18 20 21 21 20 20 19 18 17 17 15 18 20 19 21 19 20 20 22 24 27 27 27 26 24 22 21 22 20 19 18 18 17 17
11 12 10 8 10 12 15 17 19 20 21 22 23 22 21 19 15 13 12 14 13 13 16 16 18 22 23 24 26 26 25 27 28 27 26 24 24 23 21 19 19 18 18
12 11 10 10 12 14 16 19 21 22 18 22 22 20 15 12 9 5 10 14 16 16 17 15 15 14 18 21 21 26 30 30 29 29 28 27 26 24 24 22 21 20 19
13 14 15 15 14 16 19 21 23 21 19 20 15 14 12 12 3 20 8 15 9 14 17 17 19 20 22 22 24 25 26 28 30 30 30 30 30 28 27 25 23 22 21
15 17 16 14 16 19 21 22 20 20 18 20 17 9 9 7 21 6 16 10 18 16 21 22 21 22 23 24 25 25 25 28 28 31 31 32 30 31 31 29 28 26 24
18 17 16 17 18 19 21 23 22 20 18 16 13 8 9 12 12 18 14 21 16 23 24 26 28 25 24 25 26 27 28 29 29 28 29 33 33 33 33 31 30 29 28
19 18 17 20 21 19 22 22 22 19 17 15 12 13 12 12 13 14 25 25 24 23 24 25 26 30 30 29 28 28 27 28 29 31 29 28 30 34 33 32 31 31 31
20 18 18 19 21 21 22 22 21 18 16 15 15 14 14 14 17 19 24 27 28 28 26 29 30 30 30 29 30 29 29 29 29 30 34 33 31 32 35 34 33 33 32
20 18 18 23 23 23 23 23 20 18 17 15 17 16 14 15 16 20 23 28 29 34 30 29 29 30 30 28 29 32 32 31 31 31 32 35 34 34 33 35 34 33 32
20 21 20 27 26 24 22 21 19 17 16 16 16 17 18 19 19 20 22 24 31 36 36 35 30 31 30 28 32 35 33 34 31 31 33 34 36 36 34 34 35 34 32
19 31 28 25 25 23 20 19 17 15 14 14 15 20 23 25 23 26 26 23 27 35 40 49 38 35 32 31 30 31 31 34 34 33 33 35 36 36 37 36 35 35 34
23 38 31 25 24 20 18 18 15 13 12 14 17 22 26 25 26 28 26 28 26 33 44 35 44 46 40 37 35 31 32 33 35 38 38 37 37 38 38 38 37 37 36
28 35 35 28 22 19 19 16 13 11 12 15 18 23 27 27 28 28 29 30 28 33 45 54 48 47 51 47 43 38 35 33 31 34 36 38 39 39 39 39 39 38 38
20 30 34 29 20 19 16 14 12 11 13 17 21 25 30 30 30 30 28 35 38 48 48 58 58 51 47 47 43 40 36 29 28 27 29 31 39 40 41 41 41 40 38
22 27 34 24 19 16 15 13 12 12 15 17 22 27 32 31 31 30 34 40 42 47 50 51 53 52 46 41 34 40 32 30 29 28 30 30 34 39 44 43 42 41 37
22 23 23 18 15 15 14 12 12 14 15 19 23 29 33 30 29 31 34 38 43 52 50 48 47 48 42 38 32 34 33 29 26 24 26 29 31 34 46 46 43 41 38
19 20 17 16 16 14 13 11 12 14 18 21 25 30 31 26 26 30 35 40 47 53 45 44 40 38 37 39 34 30 30 25 25 24 26 27 25 29 39 42 42 40 39
20 18 17 16 15 13 12 10 12 15 19 24 28 31 29 27 29 32 36 39 43 45 39 34 36 39 41 35 31 30 29 25 25 19 19 21 24 26 25 28 37 37 35
16 16 16 15 12 11 10 10 12 16 20 25 28 28 26 25 29 33 37 41 49 42 33 32 35 38 39 36 26 26 24 21 20 16 20 19 17 21 19 21 28 30 29
15 14 12 11 11 9 9 10 13 16 20 24 27 24 24 25 28 32 37 41 46 45 35 29 32 32 30 21 18 17 11 10 14 15 12 11 8 11 15 18 22 23 26
14 11 10 9 8 9 9 11 14 16 21 24 25 21 20 23 26 29 35 38 44 44 37 32 29 21 14 2 2 7 6 6 11 10 8 9 7 7 10 11 14 22 24
10 10 8 9 7 9 10 13 14 16 21 25 25 20 17 19 22 26 31 35 38 45 44 39 42 25 20 4 4 2 4 5 6 6 2 9 7 10 8 11 12 19 19
Wind_Direction
331 335 336 347 359 352 344 333 331 311 303 304 301 299 297 292 285 284 292 289 283 279 275 270 264 273 274 275 269 266 269 272 274 273 263 256 255 253 249 247 242 243 241
297 303 308 318 327 337 341 343 343 336 326 314 305 300 293 293 284 286 289 290 286 284 284 275 265 263 266 268 273 269 266 266 268 268 268 261 255 254 252 247 244 240 241
308 311 317 320 320 322 328 331 331 332 334 329 322 309 297 293 288 289 289 287 288 279 281 280 280 267 262 262 262 265 267 266 267 265 266 265 259 254 252 250 249 242 240
297 315 326 327 310 307 315 320 326 329 329 331 327 326 318 310 296 293 291 281 285 282 280 276 284 263 266 263 264 262 262 264 265 266 262 264 263 257 253 251 249 246 243
297 307 310 314 313 317 317 315 320 322 323 323 322 320 315 311 308 304 299 294 284 287 287 277 273 257 265 264 261 262 263 263 262 260 261 261 261 259 255 252 250 246 243
295 306 297 299 308 314 319 320 319 319 323 319 321 319 318 318 311 296 292 297 300 296 298 295 273 262 266 267 264 261 262 263 262 260 257 257 257 255 256 253 249 249 246
285 279 275 293 306 313 318 320 316 317 316 320 324 324 327 338 326 356 330 308 308 305 296 294 295 286 273 267 266 258 256 257 260 261 257 254 251 254 253 252 251 248 246
270 270 278 285 296 311 320 321 322 322 319 321 326 331 333 343 344 323 339 321 326 319 308 302 294 291 283 280 272 266 262 257 253 254 252 251 252 250 250 251 252 251 248
258 268 271 284 297 308 314 317 323 322 317 319 324 330 334 319 323 329 322 322 317 321 318 314 307 298 294 287 280 272 264 259 257 253 253 249 250 252 248 249 252 252 252
256 261 272 283 293 302 311 320 325 323 323 323 329 324 319 311 319 319 313 318 318 314 315 315 311 306 299 294 288 281 271 268 259 256 251 247 249 248 246 245 247 248 247
255 265 276 289 293 301 311 318 322 324 326 325 321 318 318 317 308 303 306 313 310 310 310 310 309 308 307 300 288 282 278 272 265 255 252 247 245 249 245 244 246 246 244
257 267 283 291 296 303 308 313 317 319 319 319 316 314 314 315 313 308 305 307 308 309 310 305 302 303 302 299 296 286 277 269 263 258 252 250 246 244 247 244 245 245 244
259 267 286 295 294 298 301 306 310 312 315 315 312 312 314 313 309 306 305 307 307 307 310 306 302 299 296 291 290 292 282 270 260 256 251 249 248 246 244 243 240 243 242
266 275 285 287 289 292 294 300 304 308 312 313 315 320 321 320 313 310 306 307 309 311 311 308 305 298 293 288 287 293 282 270 260 251 249 247 245 245 244 242 239 239 239
288 287 284 287 286 288 291 297 299 306 311 313 321 328 329 323 316 314 314 310 307 305 304 312 308 307 295 287 284 285 283 273 263 251 244 242 240 241 242 242 239 233 237
253 275 281 284 286 281 290 294 295 301 309 316 323 328 332 327 321 322 318 315 309 306 297 300 303 311 302 291 288 281 280 281 265 256 243 240 238 238 238 239 238 237 235
259 262 269 278 278 284 286 282 289 295 306 317 322 330 333 328 326 324 320 317 310 312 303 303 300 297 302 295 292 293 291 280 269 261 255 243 238 236 236 237 236 236 235
273 260 263 275 281 278 271 277 279 292 307 318 326 331 335 330 327 322 319 319 315 325 310 301 301 297 293 294 293 289 290 276 265 260 261 258 242 237 234 233 234 235 234
249 261 256 270 268 263 266 271 276 292 305 319 328 333 333 330 328 322 323 323 327 322 309 302 300 301 302 297 278 284 286 286 271 257 257 261 247 239 233 230 231 233 234
250 256 254 252 251 255 259 264 284 286 306 322 328 331 330 328 326 323 323 327 328 323 317 313 309 307 308 304 290 281 278 280 277 268 265 258 248 247 236 228 228 229 231
248 246 241 239 242 244 252 264 279 295 311 320 328 330 327 327 328 327 331 332 333 331 327 319 315 316 312 307 287 273 274 278 275 275 269 262 250 247 236 227 226 224 226
230 232 231 234 236 243 257 265 288 301 312 322 326 329 326 330 332 335 337 342 339 335 325 321 318 309 301 302 294 268 264 271 267 280 265 254 237 233 223 225 225 225 227
222 224 225 229 233 245 253 279 297 306 314 322 324 326 327 332 335 337 341 342 348 347 340 338 325 315 302 288 289 272 264 266 261 266 280 272 226 222 211 223 226 221 223
218 215 220 229 236 248 257 279 302 309 316 324 328 328 327 332 337 341 346 348 353 358 352 345 337 326 308 278 263 265 279 270 266 274 264 255 188 203 206 215 221 218 214
207 211 220 228 243 249 268 288 302 310 320 327 332 332 329 332 338 344 352 352 358 6 358 7 359 350 354 1 229 247 242 232 271 280 245 218 196 171 177 191 210 206 209
210 217 214 228 248 267 283 297 299 311 324 332 334 336 336 335 338 348 357 359 3 12 14 20 24 26 36 31 158 191 172 200 251 306 199 207 194 173 148 146 175 196 200